Location: Dana
(41.8364°N, 106.7042°W)
Time: 20:46:21
(UTC+00:00)

Tiros 1 despin weight - Pass Details

Date: 10 May 2026
Orbit: 555 x 591 km, 48.2° (Epoch: 1 June)

Event Time Altitude Azimuth Distance (km) Brightness Sun altitude
Rises 18:33:39 0° 297° (WNW) 2,731 ? 65.1°
Reaches altitude 10° 18:35:56 10° 301° (WNW) 1,835 ? 65.2°
Maximum altitude 18:40:03 57° 21° (NNE) 659 ? 65.4°
Drops below altitude 10° 18:44:11 10° 100° (E) 1,837 ? 65.6°
Sets 18:46:28 0° 105° (ESE) 2,734 ? 65.7°
